Probability
0 0 0 0 0 0 0 0 0 0 0 0 0 0 0 0 0 0 0 0 0 0 3 0 0 3 3 3 3 3 3 3 3 3 3 3 3 3 3 6 6 3 0 0
0 0 0 0 0 0 0 0 0 0 0 0 0 0 0 0 0 0 0 0 0 0 0 0 0 3 3 3 3 3 3 3 3 3 3 3 3 3 3 3 3 3 3 0
0 0 0 0 0 0 0 0 0 0 0 0 0 0 0 0 0 0 0 0 0 0 0 0 0 0 3 3 3 3 3 3 3 3 0 0 3 3 3 0 3 3 0 0
0 0 0 0 0 0 0 0 0 0 0 0 0 0 0 0 0 0 0 0 0 0 0 0 0 0 0 0 0 0 0 0 0 3 0 0 0 0 3 3 0 0 0 0
0 0 0 0 0 0 0 0 0 0 0 0 0 0 0 0 0 0 0 0 0 0 0 0 0 0 0 0 0 0 0 0 0 0 0 0 3 3 3 3 0 0 0 0
0 0 0 0 0 0 0 0 0 0 0 0 0 0 0 0 0 0 0 0 0 0 0 0 0 0 0 0 0 0 0 0 0 0 0 0 0 0 0 0 0 0 0 3
0 0 0 0 0 0 0 0 0 0 0 0 0 0 0 0 0 0 0 0 0 0 0 0 0 0 0 0 0 0 0 0 0 0 0 0 0 0 0 0 0 0 0 0
0 0 0 0 0 0 0 0 0 0 0 0 0 0 0 0 0 0 0 0 0 0 0 0 0 0 0 0 0 0 0 0 0 0 0 0 0 0 0 0 0 0 0 0
0 0 0 0 0 0 0 0 0 0 0 0 0 0 0 0 0 0 0 0 0 0 0 0 0 0 0 0 0 0 0 0 0 0 0 0 0 0 0 0 0 0 0 0
0 0 0 0 0 0 0 0 0 0 0 0 0 0 0 0 0 0 0 0 0 0 0 0 0 0 0 0 0 0 0 0 0 0 0 0 0 0 0 0 0 0 0 0
0 0 0 0 0 0 0 0 0 0 0 0 0 0 0 0 0 0 0 0 0 0 0 0 0 0 0 0 0 0 0 0 0 0 0 0 0 0 0 0 0 0 0 0
0 0 0 0 0 0 0 0 0 0 0 0 0 0 0 0 0 0 0 0 0 0 0 0 0 0 0 0 0 0 0 0 0 0 0 0 0 0 0 0 0 0 0 0
0 0 0 0 0 0 0 0 0 0 0 0 0 0 0 0 0 0 0 0 0 0 0 0 0 0 0 0 0 0 0 0 0 0 0 0 0 0 0 0 0 0 0 0
0 0 0 0 0 0 0 0 0 0 0 0 0 0 0 0 0 0 0 0 0 0 0 0 0 0 0 0 0 0 0 0 0 0 0 0 0 0 0 0 0 0 0 0
0 0 0 0 0 0 0 0 0 0 0 0 0 0 0 0 0 0 0 0 0 0 0 0 0 0 0 0 0 0 0 0 0 0 0 0 0 0 0 0 0 0 0 0
0 0 0 0 0 0 0 0 0 0 0 0 0 0 0 0 0 0 0 0 0 0 0 0 0 0 0 0 0 0 0 0 0 0 0 0 0 0 0 0 0 0 0 0
0 0 0 0 0 0 0 0 0 0 0 0 0 0 0 0 0 0 0 0 0 0 0 0 0 0 0 0 0 0 0 0 0 0 0 0 0 0 0 0 0 0 0 0
0 0 0 0 0 0 0 0 0 0 0 0 0 0 0 0 0 0 0 0 0 0 0 0 0 0 0 0 0 0 0 0 0 0 0 0 0 0 0 0 0 0 0 0
0 0 0 0 0 0 0 0 0 0 0 0 0 0 0 0 0 0 0 0 0 0 0 0 0 0 0 0 0 0 0 0 0 0 0 0 0 0 0 0 0 0 0 0
0 0 0 0 0 0 0 0 0 0 0 0 0 0 0 0 0 0 0 0 0 0 0 0 0 0 0 0 0 0 0 0 0 0 0 0 0 0 0 0 0 0 0 0
0 0 0 0 0 0 0 0 0 0 0 0 0 0 0 0 0 0 0 0 0 0 0 0 0 0 0 0 0 0 0 0 0 0 0 0 0 0 0 0 0 0 0 0
0 0 0 0 0 0 0 0 0 0 0 0 0 0 0 0 0 0 0 0 0 0 0 0 0 0 0 0 0 0 0 0 0 0 0 0 0 0 0 0 0 0 0 0
0 0 0 0 0 0 0 0 0 0 0 0 0 0 0 0 0 0 0 0 0 0 0 0 0 0 0 0 0 0 0 0 0 0 0 0 0 0 0 0 0 0 0 0
0 0 0 0 0 0 0 0 0 0 0 0 0 0 0 0 0 0 0 0 0 0 0 0 0 0 0 0 0 0 0 0 0 0 0 0 0 0 0 0 0 0 0 0
0 0 0 0 0 0 0 0 0 0 0 0 0 0 0 0 0 0 0 0 0 0 0 0 0 0 0 0 0 0 0 0 0 0 0 0 0 0 0 0 0 0 0 0
0 0 0 0 0 0 0 0 0 0 0 0 0 0 0 0 0 0 0 0 0 0 0 0 0 0 0 0 0 0 0 0 0 0 0 0 0 0 0 0 0 0 0 0
Height
5625 5626 5625 5623 5622 5622 5621 5621 5620 5620 5619 5619 5620 5620 5622 5624 5626 5628 5632 5638 5643 5648 5654 5660 5666 5674 5683 5691 5699 5707 5714 5721 5727 5733 5739 5745 5752 5758 5763 5768 5773 5777 5782 5786
5624 5624 5623 5621 5621 5621 5620 5619 5619 5619 5618 5617 5618 5619 5620 5621 5623 5626 5630 5634 5639 5643 5648 5653 5659 5667 5674 5682 5691 5698 5705 5713 5720 5725 5731 5737 5743 5749 5755 5759 5763 5768 5773 5777
5621 5622 5620 5620 5620 5619 5619 5618 5618 5618 5617 5617 5617 5618 5619 5619 5621 5624 5628 5631 5635 5639 5643 5649 5654 5661 5668 5676 5685 5692 5698 5705 5712 5718 5723 5729 5734 5740 5745 5750 5755 5759 5764 5768
5620 5620 5619 5619 5619 5619 5619 5618 5618 5617 5617 5617 5618 5617 5619 5620 5622 5624 5626 5629 5632 5636 5640 5645 5650 5656 5663 5671 5678 5685 5692 5699 5705 5710 5715 5720 5726 5732 5737 5742 5747 5750 5754 5758
5619 5619 5618 5619 5619 5619 5619 5618 5618 5618 5618 5618 5618 5618 5621 5621 5622 5624 5627 5628 5631 5635 5638 5643 5647 5653 5659 5666 5673 5679 5686 5692 5698 5704 5709 5714 5718 5724 5728 5733 5736 5741 5745 5749
5619 5618 5618 5618 5619 5619 5619 5619 5619 5619 5619 5619 5620 5621 5622 5622 5623 5625 5627 5628 5631 5633 5637 5641 5645 5651 5656 5662 5668 5674 5680 5686 5692 5697 5702 5706 5711 5715 5719 5723 5727 5731 5735 5738
5619 5619 5618 5619 5619 5620 5620 5621 5621 5620 5619 5621 5621 5622 5623 5623 5625 5626 5627 5628 5631 5633 5637 5640 5644 5649 5654 5659 5664 5669 5675 5680 5686 5691 5695 5699 5703 5706 5710 5714 5718 5722 5725 5729
5619 5620 5619 5619 5620 5620 5620 5621 5622 5622 5622 5623 5623 5623 5625 5624 5626 5627 5628 5629 5631 5633 5637 5640 5644 5648 5652 5656 5661 5666 5670 5675 5679 5684 5688 5691 5695 5698 5702 5705 5709 5712 5715 5719
5619 5620 5620 5620 5620 5621 5621 5622 5622 5622 5623 5624 5625 5626 5626 5626 5628 5629 5630 5631 5632 5634 5637 5640 5643 5646 5650 5654 5658 5662 5666 5670 5673 5677 5681 5684 5687 5690 5693 5696 5699 5703 5706 5708
5620 5621 5621 5621 5622 5622 5623 5623 5623 5624 5624 5625 5626 5627 5628 5628 5629 5630 5631 5632 5633 5635 5637 5639 5642 5645 5648 5651 5654 5658 5661 5664 5667 5670 5673 5675 5679 5681 5684 5687 5690 5692 5695 5698
5620 5621 5622 5622 5623 5623 5624 5625 5624 5625 5625 5626 5627 5631 5629 5629 5630 5630 5631 5632 5633 5634 5636 5638 5640 5643 5645 5648 5651 5653 5655 5658 5660 5663 5665 5668 5670 5673 5675 5677 5680 5682 5685 5687
5621 5622 5622 5623 5623 5624 5625 5625 5626 5627 5627 5628 5629 5633 5630 5630 5631 5631 5632 5632 5633 5634 5635 5637 5638 5640 5642 5644 5646 5648 5650 5652 5654 5656 5658 5660 5662 5664 5665 5667 5669 5671 5674 5676
5622 5623 5624 5624 5626 5626 5626 5626 5627 5628 5628 5629 5630 5634 5631 5631 5631 5632 5632 5632 5633 5633 5634 5634 5635 5637 5638 5639 5641 5642 5644 5646 5647 5649 5651 5652 5653 5654 5655 5657 5658 5659 5661 5663
5624 5624 5625 5626 5626 5626 5626 5627 5628 5629 5629 5630 5630 5631 5631 5631 5632 5632 5632 5632 5632 5632 5632 5632 5633 5633 5634 5635 5636 5636 5637 5638 5640 5641 5642 5643 5644 5644 5645 5645 5646 5647 5648 5650
5625 5626 5625 5626 5626 5627 5627 5628 5629 5629 5630 5631 5631 5631 5632 5632 5632 5632 5632 5632 5632 5631 5631 5631 5631 5630 5630 5630 5630 5630 5630 5631 5631 5632 5633 5633 5633 5633 5633 5634 5634 5635 5636 5637
5626 5627 5627 5627 5627 5628 5628 5629 5630 5630 5630 5631 5631 5632 5631 5631 5631 5632 5632 5631 5631 5630 5630 5629 5628 5627 5626 5626 5625 5624 5623 5623 5623 5623 5623 5623 5622 5622 5622 5622 5621 5622 5622 5623
5627 5628 5629 5629 5629 5629 5630 5630 5630 5631 5631 5631 5632 5633 5631 5631 5631 5631 5631 5630 5630 5629 5628 5626 5625 5623 5622 5620 5619 5617 5616 5615 5613 5612 5612 5612 5611 5610 5610 5609 5609 5609 5609 5609
5629 5629 5630 5630 5631 5631 5634 5631 5631 5631 5632 5632 5632 5632 5631 5631 5630 5630 5629 5629 5628 5627 5625 5623 5621 5619 5617 5615 5613 5611 5609 5606 5604 5602 5601 5599 5599 5598 5597 5597 5596 5596 5596 5595
5630 5631 5631 5632 5632 5632 5633 5632 5632 5632 5632 5632 5632 5632 5631 5630 5630 5629 5628 5627 5625 5624 5622 5620 5617 5615 5613 5611 5608 5605 5602 5599 5596 5593 5590 5588 5587 5585 5584 5584 5583 5582 5582 5581
5631 5632 5633 5633 5633 5633 5635 5633 5633 5634 5633 5632 5631 5631 5630 5630 5629 5629 5626 5625 5623 5620 5618 5616 5613 5611 5608 5605 5602 5599 5595 5591 5587 5584 5580 5577 5574 5573 5571 5570 5569 5568 5568 5568
5632 5633 5633 5633 5633 5634 5634 5633 5633 5634 5635 5632 5631 5630 5629 5628 5628 5626 5624 5622 5620 5618 5615 5612 5609 5606 5603 5599 5596 5592 5587 5583 5578 5574 5570 5566 5563 5561 5559 5558 5557 5555 5555 5554
5633 5633 5633 5634 5634 5637 5634 5633 5634 5634 5632 5631 5630 5629 5628 5626 5625 5623 5621 5619 5617 5614 5611 5608 5605 5601 5598 5594 5589 5585 5580 5575 5570 5565 5561 5557 5553 5550 5548 5546 5544 5543 5541 5541
5633 5634 5634 5635 5636 5635 5634 5633 5633 5632 5631 5630 5628 5627 5626 5624 5622 5620 5618 5616 5613 5610 5607 5603 5599 5595 5591 5587 5582 5577 5572 5566 5561 5556 5551 5547 5543 5540 5537 5534 5532 5530 5529 5527
5632 5633 5633 5633 5634 5633 5633 5632 5632 5631 5630 5628 5627 5625 5623 5621 5619 5617 5614 5611 5608 5604 5601 5597 5593 5589 5584 5579 5573 5568 5562 5557 5551 5546 5542 5537 5533 5529 5526 5522 5520 5518 5517 5515
5631 5631 5632 5632 5632 5632 5632 5631 5630 5629 5628 5627 5625 5623 5621 5619 5616 5613 5610 5606 5602 5599 5595 5590 5586 5581 5576 5571 5565 5559 5553 5548 5542 5537 5532 5528 5524 5519 5515 5512 5509 5507 5505 5503
5628 5629 5630 5630 5630 5630 5630 5629 5628 5627 5626 5624 5622 5620 5618 5615 5612 5609 5605 5601 5597 5593 5588 5584 5579 5574 5568 5562 5556 5550 5544 5539 5534 5529 5523 5518 5514 5509 5505 5502 5499 5496 5495 5493
Wind_Speed
7 7 7 7 7 7 7 8 8 8 9 12 12 14 16 18 22 24 26 29 32 33 38 41 44 46 48 46 49 51 55 54 54 53 52 52 53 52 52 50 50 50 49 47
6 6 6 6 6 6 6 6 6 7 8 9 10 11 12 13 15 19 22 23 26 28 31 35 39 42 45 43 44 47 50 51 51 53 53 51 51 52 53 50 49 49 49 49
5 5 5 5 5 4 5 5 3 4 3 4 6 7 7 9 11 13 15 17 20 23 27 30 34 38 40 42 43 43 46 48 47 49 51 52 50 51 52 52 51 50 51 51
3 3 4 3 4 4 3 2 2 2 2 2 1 2 5 7 9 11 12 14 17 20 23 27 30 34 34 35 39 40 42 44 45 44 46 49 49 49 50 51 51 51 51 52
1 1 2 2 1 1 0 0 1 2 3 2 1 1 2 4 6 8 9 10 14 16 18 23 27 30 31 32 34 36 38 41 41 42 43 46 47 46 46 47 48 50 51 50
1 2 2 2 2 2 3 3 4 4 3 3 3 2 3 2 3 5 7 8 10 12 16 19 24 26 26 27 28 30 32 36 38 38 40 42 45 45 44 44 44 46 48 49
3 4 4 4 4 4 4 4 5 5 4 5 4 4 3 3 2 2 5 7 8 9 13 16 20 22 23 23 23 24 28 33 35 36 38 40 43 43 43 43 44 46 47 48
5 5 6 6 5 5 4 4 4 5 5 5 4 4 4 3 1 0 2 2 4 7 9 12 14 18 21 22 21 20 23 27 32 34 36 39 41 41 43 44 44 45 46 47
5 6 6 6 5 5 5 5 5 5 5 5 4 3 3 3 1 1 1 0 2 4 6 9 10 14 16 19 20 20 21 23 26 29 33 37 38 39 41 44 45 46 46 46
5 5 5 5 5 5 5 5 6 6 5 5 5 3 2 3 2 1 3 2 2 2 3 6 8 11 14 17 19 20 19 21 23 26 28 32 35 36 38 41 43 43 45 45
5 4 4 4 5 5 5 6 5 5 4 4 4 4 4 3 2 3 4 3 2 1 3 5 7 8 11 16 18 20 20 21 23 24 26 29 32 34 36 38 40 43 44 44
5 4 4 5 5 4 5 5 4 4 4 4 4 3 3 3 3 2 3 3 2 1 2 5 8 9 11 14 17 20 21 21 23 24 26 28 30 33 35 36 38 40 43 44
5 4 4 4 4 4 4 3 3 3 3 3 3 3 3 3 3 3 3 3 3 4 4 6 8 9 11 13 16 19 21 23 24 26 28 29 30 32 34 36 37 39 41 44
5 4 3 3 3 3 3 4 3 3 3 3 3 3 4 4 3 4 5 5 5 5 5 6 6 7 9 12 15 19 22 24 25 27 30 31 32 32 33 35 37 38 41 42
5 4 4 4 4 4 4 4 3 3 2 2 3 3 3 3 4 5 5 5 6 6 6 7 8 9 11 13 15 18 21 24 25 26 29 31 34 34 35 36 37 38 40 41
5 5 5 5 5 4 4 3 3 2 1 2 3 3 4 5 5 5 6 6 7 8 9 10 11 12 14 15 17 19 21 23 25 27 29 32 34 35 36 37 37 38 40 41
6 6 5 5 5 5 5 4 3 3 2 3 3 3 4 5 6 6 7 8 9 10 12 13 14 15 17 18 19 20 22 25 28 30 32 33 35 36 37 37 38 39 39 41
6 6 6 6 6 6 6 6 4 3 3 2 3 4 5 6 7 8 9 10 11 12 14 15 16 17 19 21 22 23 24 27 29 31 32 34 35 36 38 39 39 40 41 41
7 7 6 6 6 6 6 6 6 5 4 3 4 5 6 7 8 9 10 12 14 15 16 17 18 19 20 22 24 26 26 28 29 30 33 35 36 37 38 40 41 41 42 42
6 6 5 5 5 5 5 5 6 6 6 5 5 6 7 8 9 10 12 14 16 17 19 20 21 22 23 24 26 28 29 30 31 33 34 35 36 36 37 38 39 40 40 40
5 4 4 4 4 4 4 4 5 5 6 7 7 8 9 10 11 12 14 16 17 19 21 22 23 24 25 26 28 30 31 32 33 34 34 34 34 35 35 37 38 39 40 40
4 3 3 3 3 3 4 4 5 6 7 8 8 9 10 11 13 14 15 17 19 21 22 23 24 26 27 28 30 31 32 33 33 33 33 33 34 35 36 37 39 39 40 40
4 3 3 2 1 2 3 4 5 6 7 8 9 11 12 13 15 16 17 19 21 22 24 25 26 27 29 30 32 33 33 34 34 34 34 33 33 35 36 37 37 38 38 38
6 4 4 3 2 1 2 4 5 6 8 9 10 12 14 15 17 18 20 21 23 24 26 27 28 29 31 32 34 35 35 34 34 33 33 33 33 34 35 36 35 36 37 37
8 7 6 5 4 4 4 5 6 7 8 10 12 13 15 17 18 19 21 22 24 25 27 28 30 31 33 34 35 36 36 35 35 34 34 34 35 35 35 35 35 35 34 35
10 9 9 8 7 7 7 7 7 8 9 11 13 15 16 18 20 21 23 25 26 27 29 30 32 33 35 36 37 37 37 36 36 37 36 36 37 37 35 35 34 34 34 34
Wind_Direction
280 285 286 294 297 293 291 291 282 278 263 266 262 262 254 243 238 236 232 231 231 231 226 224 224 220 218 219 219 221 223 223 224 224 224 226 228 229 231 233 236 237 239 241
278 279 278 286 292 292 291 294 287 287 277 276 267 260 247 239 234 230 229 230 228 228 225 220 219 217 215 216 217 220 223 223 225 226 226 226 228 231 232 234 236 238 240 241
272 270 271 273 281 286 296 295 296 299 271 282 283 249 232 227 228 225 225 231 227 226 224 221 218 217 216 217 218 220 223 223 225 226 228 228 229 231 233 235 237 239 241 242
263 265 267 263 272 291 284 290 321 353 26 41 326 261 202 215 222 219 218 227 226 225 224 221 218 218 214 214 219 222 223 224 226 227 228 228 229 231 235 238 239 240 242 243
230 231 221 223 244 294 355 77 37 47 57 61 64 87 155 206 221 227 225 228 222 225 224 222 219 217 218 217 220 221 221 223 225 228 230 230 231 232 233 236 239 241 242 244
135 127 140 148 137 115 103 99 80 74 95 100 108 108 121 148 206 228 230 228 219 222 223 220 218 220 221 218 221 224 224 224 227 231 232 234 233 234 234 236 238 240 242 245
134 115 117 120 124 124 116 109 96 93 97 107 110 98 90 100 118 210 229 223 217 214 221 221 223 229 228 220 225 227 225 228 230 232 235 237 236 235 237 238 239 241 243 244
141 119 113 117 118 113 114 111 103 105 113 111 115 89 74 81 79 270 210 224 209 218 216 218 231 238 235 232 229 230 231 233 234 235 240 240 240 240 241 242 243 243 245 247
147 122 114 110 113 112 111 109 111 112 119 112 102 92 83 77 80 141 81 137 215 230 229 231 241 244 244 240 238 240 237 240 240 240 242 241 242 243 245 245 244 244 246 248
147 131 126 123 120 120 116 108 108 117 120 119 107 96 79 63 68 59 59 87 169 204 239 244 240 243 245 246 249 248 252 250 249 249 248 248 246 246 249 249 249 250 250 251
148 142 131 127 131 131 127 121 113 114 116 108 110 96 68 39 35 57 62 66 80 159 242 257 253 257 257 253 252 255 261 261 257 253 250 251 250 249 250 251 251 251 251 251
137 137 132 125 131 145 140 131 121 115 113 97 95 89 61 41 27 36 41 48 55 17 300 274 271 269 265 260 260 259 257 261 261 258 255 256 258 255 254 252 252 253 253 253
130 129 131 125 119 135 150 142 130 122 102 92 88 88 47 35 27 17 15 14 16 354 323 300 291 275 270 264 264 263 261 264 265 265 262 263 263 263 262 260 259 259 258 257
124 115 111 112 112 119 125 133 131 118 99 81 79 72 32 19 10 358 347 344 345 345 335 324 312 292 283 276 270 269 270 270 269 268 267 267 266 267 267 265 263 262 262 260
125 115 106 104 104 105 111 120 121 110 96 77 58 51 25 10 357 355 350 339 344 342 335 328 315 304 298 293 285 280 277 274 271 270 270 269 268 268 269 268 266 265 264 264
129 119 115 109 99 96 102 113 115 104 79 44 19 18 13 5 1 1 353 340 342 336 329 325 320 313 308 301 295 292 288 281 276 273 271 270 270 269 269 268 267 266 265 264
133 122 115 110 98 90 94 92 94 89 77 55 36 26 18 8 359 354 345 340 337 335 333 327 322 317 314 311 308 302 295 290 285 281 277 274 272 270 269 269 268 267 267 267
129 122 114 108 98 94 81 77 76 77 71 52 30 12 356 350 347 342 341 342 338 335 330 325 322 317 314 313 311 307 301 296 291 287 283 280 277 275 272 271 270 270 269 269
124 123 115 107 97 85 74 69 66 63 59 39 21 6 354 349 347 343 341 339 336 334 329 325 321 318 315 313 313 311 307 303 298 295 290 285 281 278 275 273 271 270 271 270
126 124 116 106 91 81 73 68 62 53 46 30 17 4 354 347 344 339 335 335 333 332 329 326 323 318 314 313 313 312 308 305 302 299 294 288 284 282 279 276 274 271 270 270
142 130 124 111 95 80 66 55 43 33 24 17 10 2 355 349 343 336 334 333 331 330 327 324 321 318 316 314 313 312 310 307 305 302 297 291 287 284 281 278 276 274 272 271
168 152 140 126 102 72 50 34 25 16 9 3 357 351 345 342 337 332 329 329 328 328 326 323 321 318 316 315 314 313 310 308 305 303 299 294 290 287 284 281 278 277 275 273
196 189 180 165 119 54 28 16 7 358 353 348 345 342 338 335 333 329 326 324 325 325 323 322 320 318 316 316 315 313 311 309 306 304 301 298 294 290 287 285 282 278 275 274
214 213 214 218 238 293 332 345 348 345 342 338 335 335 334 333 331 329 327 324 323 323 322 320 320 319 317 317 317 315 313 310 308 305 303 300 297 293 289 287 284 279 276 275
224 228 233 240 258 275 294 316 328 330 332 335 336 333 332 332 331 330 329 328 326 324 323 322 320 320 319 318 317 316 314 312 309 306 303 300 297 296 292 288 284 281 278 275
233 239 242 247 259 272 284 298 309 315 322 328 331 332 333 332 331 329 328 328 327 325 324 323 322 321 320 318 317 316 314 312 309 306 304 301 299 298 294 290 286 283 281 278